This demonstration page uses our WeatherBlox Daily Observations layout. Learn more.

Left ArrowRight Arrow

41.55636, -103.73856

Hourly Observations for January 28, 2022

Temp ( °F °C ) Dew Point ( °F °C ) Humidity (%) Winds ( mph kmh ) Pressure ( in mb ) Visibility ( mi km ) Precip ( " mm )
12:58 am 00:58 Clear 16 -8.8 9 -12.6 74 74 W 10 17 30.53 1034 10 16 0.00 0.00
1:58 am 01:58 Clear 18 -7.9 10 -12.1 72 72 W 9 15 30.50 1033 10 16 0.00 0.00
2:58 am 02:58 Mostly Clear 18 -7.7 11 -11.8 73 73 W 12 19 30.50 1033 10 16 0.00 0.00
3:58 am 03:58 Cloudy 21 -6.2 13 -10.7 71 71 W 9 15 30.49 1033 10 16 0.00 0.00
4:58 am 04:58 Cloudy 23 -4.9 14 -9.9 68 68 W 9 15 30.48 1032 10 16 0.00 0.00
5:58 am 05:58 Mostly Clear 20 -6.4 11 -11.5 67 67 W 10 17 30.52 1033 10 16 0.00 0.00
6:58 am 06:58 Mostly Clear 20 -6.6 10 -12.3 64 64 W 8 13 30.55 1035 10 16 0.00 0.00
7:58 am 07:58 Sunny 21 -6.2 10 -12.2 63 63 WNW 10 17 30.56 1035 10 16 0.00 0.00
8:58 am 08:58 Sunny 29 -1.7 11 -11.4 48 48 WNW 16 26 30.55 1034 10 16 0.00 0.00
9:58 am 09:58 Sunny 34 1 11 -11.7 38 38 WNW 15 24 30.52 1034 10 16 0.00 0.00
10:58 am 10:58 Sunny 37 3 10 -12.4 32 32 NW 25 41 30.49 1033 10 16 0.00 0.00
11:58 am 11:58 Sunny 40 4.2 11 -11.5 31 31 WNW 22 35 30.47 1032 10 16 0.00 0.00
12:58 pm 12:58 Sunny 40 4.7 14 -9.9 34 34 W 16 26 30.44 1031 10 16 0.00 0.00
1:58 pm 13:58 Sunny 42 5.5 13 -10.6 31 31 NW 18 30 30.40 1030 10 16 0.00 0.00
2:58 pm 14:58 Sunny 42 5.8 11 -11.5 28 28 WNW 17 28 30.39 1029 10 16 0.00 0.00
3:58 pm 15:58 Sunny 41 5 12 -11 31 31 W 14 22 30.38 1029 10 16 0.00 0.00
4:58 pm 16:58 Sunny 36 2.1 15 -9.4 43 43 W 13 20 30.36 1028 10 16 0.00 0.00
5:58 pm 17:58 Clear 32 -0.1 15 -9.2 51 51 W 12 19 30.38 1029 10 16 0.00 0.00
6:58 pm 18:58 Clear 32 -0.2 15 -9.6 50 50 W 17 28 30.38 1029 10 16 0.00 0.00
7:58 pm 19:58 Mostly Cloudy 35 1.6 10 -12 36 36 W 18 30 30.35 1028 10 16 0.00 0.00
8:58 pm 20:58 Mostly Cloudy 35 1.8 10 -12.1 35 35 W 13 20 30.32 1027 10 16 0.00 0.00
9:58 pm 21:58 Clear 32 0.2 12 -11.3 42 42 SW 12 19 30.28 1025 10 16 0.00 0.00

Powered by AerisWeather